Time,TemperatureF,DewpointF,PressureIn,WindDirection,WindDirectionDegrees,WindSpeedMPH,WindSpeedGustMPH,Humidity,HourlyPrecipIn,Conditions,Clouds,dailyrainin,SoftwareType,DateUTC
2013-03-17 00:00:00,22.7,10.1,30.02,WSW,242,2.0,2.0,58,0.00,,,0.00,Wunderground v.1.15,2013-03-17 04:00:00,
2013-03-17 00:05:00,22.5,10.3,30.02,SW,234,1.0,2.0,59,0.00,,,0.00,Wunderground v.1.15,2013-03-17 04:05:00,
2013-03-17 00:15:00,22.4,10.2,30.02,WSW,241,2.0,2.0,59,0.00,,,0.00,Wunderground v.1.15,2013-03-17 04:15:00,
2013-03-17 00:20:00,22.4,10.2,30.02,WSW,241,1.0,1.0,59,0.00,,,0.00,Wunderground v.1.15,2013-03-17 04:20:00,
2013-03-17 00:25:00,22.4,10.2,30.02,WNW,296,1.0,1.0,59,0.00,,,0.00,Wunderground v.1.15,2013-03-17 04:25:00,
2013-03-17 00:30:00,22.4,10.2,30.02,SSW,202,1.0,2.0,59,0.00,,,0.00,Wunderground v.1.15,2013-03-17 04:30:00,
2013-03-17 00:35:00,22.2,10.0,30.02,SSW,202,1.0,2.0,59,0.00,,,0.00,Wunderground v.1.15,2013-03-17 04:35:00,
2013-03-17 00:45:00,21.8,10.0,30.02,SSW,210,1.0,3.0,60,0.00,,,0.00,Wunderground v.1.15,2013-03-17 04:45:00,
2013-03-17 00:50:00,21.7,9.9,30.02,West,261,2.0,2.0,60,0.00,,,0.00,Wunderground v.1.15,2013-03-17 04:50:00,
2013-03-17 00:55:00,21.8,10.0,30.02,SW,231,2.0,2.0,60,0.00,,,0.00,Wunderground v.1.15,2013-03-17 04:55:00,
2013-03-17 01:00:00,21.6,9.8,30.03,SW,226,2.0,2.0,60,0.00,,,0.00,Wunderground v.1.15,2013-03-17 05:00:00,
2013-03-17 01:05:00,21.5,9.7,30.02,SW,227,2.0,2.0,60,0.00,,,0.00,Wunderground v.1.15,2013-03-17 05:05:00,
2013-03-17 01:10:00,21.4,9.7,30.02,SSW,194,2.0,2.0,60,0.00,,,0.00,Wunderground v.1.15,2013-03-17 05:10:00,
2013-03-17 01:15:00,21.4,9.7,30.02,SSW,200,2.0,2.0,60,0.00,,,0.00,Wunderground v.1.15,2013-03-17 05:15:00,
2013-03-17 01:25:00,21.4,9.7,30.02,SW,221,1.0,2.0,60,0.00,,,0.00,Wunderground v.1.15,2013-03-17 05:25:00,
2013-03-17 01:35:00,21.5,9.7,30.03,SW,222,2.0,2.0,60,0.00,,,0.00,Wunderground v.1.15,2013-03-17 05:35:00,
2013-03-17 01:45:00,21.5,9.7,30.03,SW,222,2.0,2.0,60,0.00,,,0.00,Wunderground v.1.15,2013-03-17 05:45:00,
2013-03-17 01:50:00,21.4,9.7,30.03,SW,222,1.0,1.0,60,0.00,,,0.00,Wunderground v.1.15,2013-03-17 05:50:00,
2013-03-17 01:55:00,21.3,9.6,30.03,SW,220,1.0,2.0,60,0.00,,,0.00,Wunderground v.1.15,2013-03-17 05:55:00,
2013-03-17 02:00:00,21.1,9.4,30.03,SW,220,1.0,1.0,60,0.00,,,0.00,Wunderground v.1.15,2013-03-17 06:00:00,
2013-03-17 02:05:00,21.1,9.4,30.03,SW,217,1.0,2.0,60,0.00,,,0.00,Wunderground v.1.15,2013-03-17 06:05:00,
2013-03-17 02:10:00,20.9,9.5,30.03,SW,217,1.0,1.0,61,0.00,,,0.00,Wunderground v.1.15,2013-03-17 06:10:00,
2013-03-17 02:15:00,20.9,9.5,30.03,SW,217,1.0,1.0,61,0.00,,,0.00,Wunderground v.1.15,2013-03-17 06:15:00,
2013-03-17 02:20:00,20.8,9.5,30.02,SW,217,1.0,1.0,61,0.00,,,0.00,Wunderground v.1.15,2013-03-17 06:20:00,
2013-03-17 02:30:00,20.6,9.3,30.03,SW,217,1.0,2.0,61,0.00,,,0.00,Wunderground v.1.15,2013-03-17 06:30:00,
2013-03-17 02:35:00,20.6,9.3,30.02,SW,217,1.0,2.0,61,0.00,,,0.00,Wunderground v.1.15,2013-03-17 06:35:00,
2013-03-17 02:45:00,20.6,9.3,30.02,SW,217,1.0,1.0,61,0.00,,,0.00,Wunderground v.1.15,2013-03-17 06:45:00,
2013-03-17 02:50:00,20.6,9.3,30.02,SW,217,1.0,1.0,61,0.00,,,0.00,Wunderground v.1.15,2013-03-17 06:50:00,
2013-03-17 02:55:00,20.6,9.3,30.02,SW,218,1.0,1.0,61,0.00,,,0.00,Wunderground v.1.15,2013-03-17 06:55:00,
2013-03-17 03:00:00,20.6,9.3,30.03,SW,218,1.0,2.0,61,0.00,,,0.00,Wunderground v.1.15,2013-03-17 07:00:00,
2013-03-17 03:05:00,20.8,9.5,30.03,SW,218,1.0,2.0,61,0.00,,,0.00,Wunderground v.1.15,2013-03-17 07:05:00,
2013-03-17 03:10:00,20.9,9.5,30.02,SW,218,1.0,1.0,61,0.00,,,0.00,Wunderground v.1.15,2013-03-17 07:10:00,
2013-03-17 03:15:00,20.8,9.5,30.02,SW,218,1.0,1.0,61,0.00,,,0.00,Wunderground v.1.15,2013-03-17 07:15:00,
2013-03-17 03:20:00,20.6,9.3,30.02,SW,218,1.0,1.0,61,0.00,,,0.00,Wunderground v.1.15,2013-03-17 07:20:00,
2013-03-17 03:30:00,20.8,9.5,30.03,SW,218,1.0,1.0,61,0.00,,,0.00,Wunderground v.1.15,2013-03-17 07:30:00,
2013-03-17 03:35:00,20.9,9.5,30.03,SW,218,1.0,1.0,61,0.00,,,0.00,Wunderground v.1.15,2013-03-17 07:35:00,
2013-03-17 03:40:00,20.9,9.5,30.03,SW,218,1.0,1.0,61,0.00,,,0.00,Wunderground v.1.15,2013-03-17 07:40:00,
2013-03-17 03:45:00,20.7,9.4,30.03,SW,218,1.0,2.0,61,0.00,,,0.00,Wunderground v.1.15,2013-03-17 07:45:00,
2013-03-17 03:55:00,20.6,9.3,30.03,WSW,251,1.0,2.0,61,0.00,,,0.00,Wunderground v.1.15,2013-03-17 07:55:00,
2013-03-17 04:00:00,21.2,10.6,30.04,WSW,252,1.0,1.0,63,0.00,,,0.00,Wunderground v.1.15,2013-03-17 08:00:00,
2013-03-17 04:10:00,20.9,9.5,30.04,WSW,252,0.0,2.0,61,0.00,,,0.00,Wunderground v.1.15,2013-03-17 08:10:00,
2013-03-17 04:15:00,20.5,9.2,30.04,WSW,252,1.0,2.0,61,0.00,,,0.00,Wunderground v.1.15,2013-03-17 08:15:00,
2013-03-17 04:20:00,20.0,9.1,30.04,WSW,251,1.0,1.0,62,0.00,,,0.00,Wunderground v.1.15,2013-03-17 08:20:00,
2013-03-17 04:25:00,19.9,9.3,30.04,SW,224,1.0,2.0,63,0.00,,,0.00,Wunderground v.1.15,2013-03-17 08:25:00,
2013-03-17 04:30:00,19.9,9.3,30.05,SW,223,2.0,2.0,63,0.00,,,0.00,Wunderground v.1.15,2013-03-17 08:30:00,
2013-03-17 04:35:00,19.9,9.3,30.05,SW,232,2.0,2.0,63,0.00,,,0.00,Wunderground v.1.15,2013-03-17 08:35:00,
2013-03-17 04:40:00,19.9,9.7,30.05,SW,226,3.0,3.0,64,0.00,,,0.00,Wunderground v.1.15,2013-03-17 08:40:00,
2013-03-17 04:45:00,19.8,9.6,30.05,SW,230,3.0,3.0,64,0.00,,,0.00,Wunderground v.1.15,2013-03-17 08:45:00,
2013-03-17 04:55:00,19.7,9.8,30.04,SSW,213,2.0,3.0,65,0.00,,,0.00,Wunderground v.1.15,2013-03-17 08:55:00,
2013-03-17 05:00:00,19.5,9.6,30.04,SW,225,2.0,2.0,65,0.00,,,0.00,Wunderground v.1.15,2013-03-17 09:00:00,
2013-03-17 05:10:00,19.6,9.7,30.04,SW,236,2.0,2.0,65,0.00,,,0.00,Wunderground v.1.15,2013-03-17 09:10:00,
2013-03-17 05:15:00,19.5,9.6,30.05,SW,233,2.0,4.0,65,0.00,,,0.00,Wunderground v.1.15,2013-03-17 09:15:00,
2013-03-17 05:25:00,19.9,10.0,30.05,SW,229,3.0,3.0,65,0.00,,,0.00,Wunderground v.1.15,2013-03-17 09:25:00,
2013-03-17 05:30:00,20.1,10.2,30.05,WSW,250,3.0,4.0,65,0.00,,,0.00,Wunderground v.1.15,2013-03-17 09:30:00,
2013-03-17 05:35:00,20.2,10.0,30.04,WSW,249,3.0,4.0,64,0.00,,,0.00,Wunderground v.1.15,2013-03-17 09:35:00,
2013-03-17 05:40:00,20.1,9.9,30.04,SW,223,2.0,2.0,64,0.00,,,0.00,Wunderground v.1.15,2013-03-17 09:40:00,
2013-03-17 05:45:00,20.0,9.8,30.05,West,273,1.0,2.0,64,0.00,,,0.00,Wunderground v.1.15,2013-03-17 09:45:00,
2013-03-17 05:50:00,19.8,9.9,30.05,West,273,1.0,1.0,65,0.00,,,0.00,Wunderground v.1.15,2013-03-17 09:50:00,
2013-03-17 05:55:00,19.9,10.4,30.06,West,273,1.0,1.0,66,0.00,,,0.00,Wunderground v.1.15,2013-03-17 09:55:00,
2013-03-17 06:00:00,19.9,10.0,30.05,West,273,0.0,0.0,65,0.00,,,0.00,Wunderground v.1.15,2013-03-17 10:00:00,
2013-03-17 06:05:00,19.8,10.3,30.06,West,273,0.0,0.0,66,0.00,,,0.00,Wunderground v.1.15,2013-03-17 10:05:00,
2013-03-17 06:15:00,19.0,9.5,30.05,West,280,0.0,0.0,66,0.00,,,0.00,Wunderground v.1.15,2013-03-17 10:15:00,
2013-03-17 06:20:00,18.6,9.5,30.05,West,280,1.0,1.0,67,0.00,,,0.00,Wunderground v.1.15,2013-03-17 10:20:00,
2013-03-17 06:25:00,18.4,9.6,30.05,West,280,1.0,1.0,68,0.00,,,0.00,Wunderground v.1.15,2013-03-17 10:25:00,
2013-03-17 06:30:00,18.2,9.4,30.06,West,280,0.0,0.0,68,0.00,,,0.00,Wunderground v.1.15,2013-03-17 10:30:00,
2013-03-17 06:35:00,17.9,9.4,30.05,West,280,0.0,1.0,69,0.00,,,0.00,Wunderground v.1.15,2013-03-17 10:35:00,
2013-03-17 06:40:00,17.7,9.2,30.06,West,280,0.0,0.0,69,0.00,,,0.00,Wunderground v.1.15,2013-03-17 10:40:00,
2013-03-17 06:45:00,17.6,9.5,30.06,West,280,1.0,1.0,70,0.00,,,0.00,Wunderground v.1.15,2013-03-17 10:45:00,
2013-03-17 06:50:00,17.5,9.4,30.07,NNW,348,1.0,1.0,70,0.00,,,0.00,Wunderground v.1.15,2013-03-17 10:50:00,
2013-03-17 06:55:00,17.5,9.4,30.07,NNE,24,1.0,2.0,70,0.00,,,0.00,Wunderground v.1.15,2013-03-17 10:55:00,
2013-03-17 07:00:00,17.7,9.2,30.07,NW,317,2.0,2.0,69,0.00,,,0.00,Wunderground v.1.15,2013-03-17 11:00:00,
2013-03-17 07:10:00,17.5,9.1,30.07,SW,233,2.0,3.0,69,0.00,,,0.00,Wunderground v.1.15,2013-03-17 11:10:00,
2013-03-17 07:15:00,17.3,8.9,30.07,SW,221,3.0,3.0,69,0.00,,,0.00,Wunderground v.1.15,2013-03-17 11:15:00,
2013-03-17 07:20:00,17.5,8.4,30.07,WNW,298,4.0,7.0,67,0.00,,,0.00,Wunderground v.1.15,2013-03-17 11:20:00,
2013-03-17 07:25:00,18.7,6.7,30.07,WSW,238,5.0,7.0,59,0.00,,,0.00,Wunderground v.1.15,2013-03-17 11:25:00,
2013-03-17 07:30:00,19.2,6.1,30.07,WSW,257,6.0,6.0,56,0.00,,,0.00,Wunderground v.1.15,2013-03-17 11:30:00,
2013-03-17 07:35:00,19.6,4.4,30.07,WNW,284,6.0,8.0,51,0.00,,,0.00,Wunderground v.1.15,2013-03-17 11:35:00,
2013-03-17 07:40:00,20.0,5.6,30.08,NW,305,7.0,7.0,53,0.00,,,0.00,Wunderground v.1.15,2013-03-17 11:40:00,
2013-03-17 07:45:00,20.2,4.9,30.08,NW,323,7.0,7.0,51,0.00,,,0.00,Wunderground v.1.15,2013-03-17 11:45:00,
2013-03-17 07:50:00,20.0,5.2,30.09,NW,310,6.0,6.0,52,0.00,,,0.00,Wunderground v.1.15,2013-03-17 11:50:00,
2013-03-17 07:55:00,20.1,5.3,30.09,WNW,290,5.0,6.0,52,0.00,,,0.00,Wunderground v.1.15,2013-03-17 11:55:00,
2013-03-17 08:00:00,20.3,5.9,30.09,WNW,284,5.0,5.0,53,0.00,,,0.00,Wunderground v.1.15,2013-03-17 12:00:00,
2013-03-17 08:05:00,20.2,5.4,30.09,West,272,5.0,7.0,52,0.00,,,0.00,Wunderground v.1.15,2013-03-17 12:05:00,
2013-03-17 08:10:00,20.3,5.0,30.10,SW,230,6.0,6.0,51,0.00,,,0.00,Wunderground v.1.15,2013-03-17 12:10:00,
2013-03-17 08:15:00,20.4,5.1,30.10,WNW,291,6.0,6.0,51,0.00,,,0.00,Wunderground v.1.15,2013-03-17 12:15:00,
2013-03-17 08:20:00,20.6,4.9,30.10,SW,232,6.0,6.0,50,0.00,,,0.00,Wunderground v.1.15,2013-03-17 12:20:00,
2013-03-17 08:25:00,20.8,5.9,30.11,West,270,4.0,6.0,52,0.00,,,0.00,Wunderground v.1.15,2013-03-17 12:25:00,
2013-03-17 08:30:00,20.7,5.8,30.11,WNW,282,3.0,6.0,52,0.00,,,0.00,Wunderground v.1.15,2013-03-17 12:30:00,
2013-03-17 08:35:00,20.8,5.5,30.11,NNW,334,4.0,6.0,51,0.00,,,0.00,Wunderground v.1.15,2013-03-17 12:35:00,
2013-03-17 08:40:00,20.9,4.7,30.11,WNW,299,4.0,4.0,49,0.00,,,0.00,Wunderground v.1.15,2013-03-17 12:40:00,
2013-03-17 08:45:00,21.2,4.5,30.11,NNW,331,3.0,4.0,48,0.00,,,0.00,Wunderground v.1.15,2013-03-17 12:45:00,
2013-03-17 08:50:00,21.4,4.7,30.11,NW,317,3.0,3.0,48,0.00,,,0.00,Wunderground v.1.15,2013-03-17 12:50:00,
2013-03-17 08:55:00,21.6,4.9,30.11,NW,306,2.0,3.0,48,0.00,,,0.00,Wunderground v.1.15,2013-03-17 12:55:00,
2013-03-17 09:00:00,21.7,5.0,30.11,NNW,329,2.0,5.0,48,0.00,,,0.00,Wunderground v.1.15,2013-03-17 13:00:00,
2013-03-17 09:10:00,21.7,5.0,30.12,WNW,289,3.0,3.0,48,0.00,,,0.00,Wunderground v.1.15,2013-03-17 13:10:00,
2013-03-17 09:15:00,21.9,5.2,30.12,NW,309,3.0,4.0,48,0.00,,,0.00,Wunderground v.1.15,2013-03-17 13:15:00,
2013-03-17 09:20:00,22.0,5.7,30.12,West,272,4.0,5.0,49,0.00,,,0.00,Wunderground v.1.15,2013-03-17 13:20:00,
2013-03-17 09:25:00,22.2,6.4,30.11,NW,318,4.0,5.0,50,0.00,,,0.00,Wunderground v.1.15,2013-03-17 13:25:00,
2013-03-17 09:30:00,22.7,6.4,30.11,West,276,3.0,3.0,49,0.00,,,0.00,Wunderground v.1.15,2013-03-17 13:30:00,
2013-03-17 09:35:00,22.9,5.6,30.12,West,261,3.0,3.0,47,0.00,,,0.00,Wunderground v.1.15,2013-03-17 13:35:00,
2013-03-17 09:40:00,23.1,5.4,30.12,NNE,30,2.0,4.0,46,0.00,,,0.00,Wunderground v.1.15,2013-03-17 13:40:00,
2013-03-17 09:45:00,22.9,5.2,30.12,NW,321,4.0,6.0,46,0.00,,,0.00,Wunderground v.1.15,2013-03-17 13:45:00,
2013-03-17 09:50:00,22.8,5.6,30.12,WNW,301,5.0,5.0,47,0.00,,,0.00,Wunderground v.1.15,2013-03-17 13:50:00,
2013-03-17 09:55:00,23.0,5.7,30.12,NNW,342,5.0,10.0,47,0.00,,,0.00,Wunderground v.1.15,2013-03-17 13:55:00,
2013-03-17 10:00:00,23.5,6.2,30.12,NNW,342,5.0,5.0,47,0.00,,,0.00,Wunderground v.1.15,2013-03-17 14:00:00,
2013-03-17 10:05:00,23.5,6.2,30.12,North,5,5.0,5.0,47,0.00,,,0.00,Wunderground v.1.15,2013-03-17 14:05:00,
2013-03-17 10:10:00,23.7,6.4,30.13,North,9,5.0,8.0,47,0.00,,,0.00,Wunderground v.1.15,2013-03-17 14:10:00,
2013-03-17 10:15:00,22.8,6.0,30.13,North,5,7.0,8.0,48,0.00,,,0.00,Wunderground v.1.15,2013-03-17 14:15:00,
2013-03-17 10:20:00,22.9,6.1,30.13,WNW,284,9.0,9.0,48,0.00,,,0.00,Wunderground v.1.15,2013-03-17 14:20:00,
2013-03-17 10:25:00,23.1,6.3,30.13,NW,311,6.0,9.0,48,0.00,,,0.00,Wunderground v.1.15,2013-03-17 14:25:00,
2013-03-17 10:35:00,23.4,6.1,30.14,NNE,23,5.0,9.0,47,0.00,,,0.00,Wunderground v.1.15,2013-03-17 14:35:00,
2013-03-17 10:40:00,23.4,6.6,30.14,NNE,24,7.0,7.0,48,0.00,,,0.00,Wunderground v.1.15,2013-03-17 14:40:00,
2013-03-17 10:45:00,23.4,6.1,30.14,NNE,22,6.0,7.0,47,0.00,,,0.00,Wunderground v.1.15,2013-03-17 14:45:00,
2013-03-17 10:50:00,23.8,6.5,30.13,North,351,4.0,4.0,47,0.00,,,0.00,Wunderground v.1.15,2013-03-17 14:50:00,
2013-03-17 10:55:00,24.3,6.5,30.14,NNE,30,3.0,4.0,46,0.00,,,0.00,Wunderground v.1.15,2013-03-17 14:55:00,
2013-03-17 11:00:00,24.3,6.0,30.14,West,281,5.0,5.0,45,0.00,,,0.00,Wunderground v.1.15,2013-03-17 15:00:00,
2013-03-17 11:10:00,24.9,6.0,30.14,NNW,340,5.0,6.0,44,0.00,,,0.00,Wunderground v.1.15,2013-03-17 15:10:00,
2013-03-17 11:15:00,24.7,5.3,30.14,NNW,329,7.0,14.0,43,0.00,,,0.00,Wunderground v.1.15,2013-03-17 15:15:00,
2013-03-17 11:20:00,24.7,5.8,30.14,NNW,342,7.0,12.0,44,0.00,,,0.00,Wunderground v.1.15,2013-03-17 15:20:00,
2013-03-17 11:25:00,25.1,7.2,30.14,NNW,340,7.0,12.0,46,0.00,,,0.00,Wunderground v.1.15,2013-03-17 15:25:00,
2013-03-17 11:30:00,25.7,4.7,30.15,NW,304,8.0,8.0,40,0.00,,,0.00,Wunderground v.1.15,2013-03-17 15:30:00,
2013-03-17 11:35:00,25.1,3.6,30.15,WNW,296,10.0,13.0,39,0.00,,,0.00,Wunderground v.1.15,2013-03-17 15:35:00,
2013-03-17 11:40:00,25.4,4.4,30.15,NNW,338,10.0,10.0,40,0.00,,,0.00,Wunderground v.1.15,2013-03-17 15:40:00,
2013-03-17 11:45:00,25.3,5.9,30.15,NNW,346,8.0,10.0,43,0.00,,,0.00,Wunderground v.1.15,2013-03-17 15:45:00,
2013-03-17 11:50:00,24.9,6.0,30.16,NNW,329,9.0,15.0,44,0.00,,,0.00,Wunderground v.1.15,2013-03-17 15:50:00,
2013-03-17 11:55:00,24.9,6.0,30.16,NNE,31,11.0,15.0,44,0.00,,,0.00,Wunderground v.1.15,2013-03-17 15:55:00,
2013-03-17 12:00:00,24.8,6.4,30.15,NNW,341,10.0,10.0,45,0.00,,,0.00,Wunderground v.1.15,2013-03-17 16:00:00,
2013-03-17 12:05:00,24.9,5.5,30.15,NNW,337,9.0,10.0,43,0.00,,,0.00,Wunderground v.1.15,2013-03-17 16:05:00,
2013-03-17 12:10:00,25.5,3.4,30.16,North,11,9.0,9.0,38,0.00,,,0.00,Wunderground v.1.15,2013-03-17 16:10:00,
2013-03-17 12:15:00,26.0,4.4,30.15,North,5,8.0,11.0,39,0.00,,,0.00,Wunderground v.1.15,2013-03-17 16:15:00,
2013-03-17 12:20:00,26.1,4.5,30.16,North,349,9.0,10.0,39,0.00,,,0.00,Wunderground v.1.15,2013-03-17 16:20:00,
2013-03-17 12:25:00,26.5,4.3,30.15,North,5,9.0,10.0,38,0.00,,,0.00,Wunderground v.1.15,2013-03-17 16:25:00,
2013-03-17 12:30:00,26.6,2.6,30.15,WNW,291,8.0,20.0,35,0.00,,,0.00,Wunderground v.1.15,2013-03-17 16:30:00,
2013-03-17 12:35:00,26.1,1.5,30.16,WNW,289,11.0,21.0,34,0.00,,,0.00,Wunderground v.1.15,2013-03-17 16:35:00,
2013-03-17 12:40:00,26.3,1.7,30.16,WNW,284,12.0,12.0,34,0.00,,,0.00,Wunderground v.1.15,2013-03-17 16:40:00,
2013-03-17 12:45:00,25.7,-0.1,30.16,NNW,338,11.0,17.0,32,0.00,,,0.00,Wunderground v.1.15,2013-03-17 16:45:00,
2013-03-17 12:50:00,25.6,1.1,30.16,West,280,12.0,12.0,34,0.00,,,0.00,Wunderground v.1.15,2013-03-17 16:50:00,
2013-03-17 12:55:00,25.7,-0.8,30.16,West,267,12.0,14.0,31,0.00,,,0.00,Wunderground v.1.15,2013-03-17 16:55:00,
2013-03-17 13:00:00,25.4,-0.4,30.17,NNE,21,12.0,12.0,32,0.00,,,0.00,Wunderground v.1.15,2013-03-17 17:00:00,
2013-03-17 13:05:00,25.4,0.9,30.17,NNW,340,12.0,12.0,34,0.00,,,0.00,Wunderground v.1.15,2013-03-17 17:05:00,
2013-03-17 13:15:00,25.4,0.9,30.17,North,11,11.0,15.0,34,0.00,,,0.00,Wunderground v.1.15,2013-03-17 17:15:00,
2013-03-17 13:20:00,24.4,0.0,30.18,North,360,14.0,14.0,34,0.00,,,0.00,Wunderground v.1.15,2013-03-17 17:20:00,
2013-03-17 13:25:00,24.7,0.3,30.18,NNE,32,14.0,16.0,34,0.00,,,0.00,Wunderground v.1.15,2013-03-17 17:25:00,
2013-03-17 13:30:00,24.5,-0.5,30.18,North,360,14.0,14.0,33,0.00,,,0.00,Wunderground v.1.15,2013-03-17 17:30:00,
2013-03-17 13:35:00,24.8,-0.3,30.18,NW,315,14.0,14.0,33,0.00,,,0.00,Wunderground v.1.15,2013-03-17 17:35:00,
2013-03-17 13:40:00,24.9,-0.2,30.18,NNW,342,13.0,16.0,33,0.00,,,0.00,Wunderground v.1.15,2013-03-17 17:40:00,
2013-03-17 13:50:00,24.6,-0.5,30.18,North,360,12.0,12.0,33,0.00,,,0.00,Wunderground v.1.15,2013-03-17 17:50:00,
2013-03-17 13:55:00,24.5,1.3,30.18,West,267,11.0,12.0,36,0.00,,,0.00,Wunderground v.1.15,2013-03-17 17:55:00,
2013-03-17 14:00:00,25.0,1.2,30.18,NNW,331,10.0,19.0,35,0.00,,,0.00,Wunderground v.1.15,2013-03-17 18:00:00,
2013-03-17 14:05:00,24.7,2.1,30.18,NE,35,11.0,19.0,37,0.00,,,0.00,Wunderground v.1.15,2013-03-17 18:05:00,
2013-03-17 14:10:00,24.8,2.7,30.18,NNE,13,11.0,16.0,38,0.00,,,0.00,Wunderground v.1.15,2013-03-17 18:10:00,
2013-03-17 14:15:00,24.4,3.5,30.19,NNE,13,11.0,16.0,40,0.00,,,0.00,Wunderground v.1.15,2013-03-17 18:15:00,
2013-03-17 14:20:00,24.9,3.9,30.19,North,350,11.0,12.0,40,0.00,,,0.00,Wunderground v.1.15,2013-03-17 18:20:00,
2013-03-17 14:25:00,24.7,3.8,30.19,North,5,10.0,12.0,40,0.00,,,0.00,Wunderground v.1.15,2013-03-17 18:25:00,
2013-03-17 14:30:00,24.5,3.0,30.19,North,350,11.0,11.0,39,0.00,,,0.00,Wunderground v.1.15,2013-03-17 18:30:00,
2013-03-17 14:35:00,24.3,2.9,30.19,NNE,26,12.0,12.0,39,0.00,,,0.00,Wunderground v.1.15,2013-03-17 18:35:00,
2013-03-17 14:40:00,24.5,3.6,30.19,NNE,15,11.0,16.0,40,0.00,,,0.00,Wunderground v.1.15,2013-03-17 18:40:00,
2013-03-17 14:45:00,24.6,3.1,30.19,NNE,31,10.0,16.0,39,0.00,,,0.00,Wunderground v.1.15,2013-03-17 18:45:00,
2013-03-17 14:55:00,24.6,-1.1,30.19,West,268,10.0,13.0,32,0.00,,,0.00,Wunderground v.1.15,2013-03-17 18:55:00,
2013-03-17 15:00:00,25.0,-1.4,30.19,NNW,344,10.0,10.0,31,0.00,,,0.00,Wunderground v.1.15,2013-03-17 19:00:00,
2013-03-17 15:05:00,25.2,0.1,30.20,NNW,334,10.0,10.0,33,0.00,,,0.00,Wunderground v.1.15,2013-03-17 19:05:00,
2013-03-17 15:10:00,25.8,-0.1,30.20,West,261,8.0,16.0,32,0.00,,,0.00,Wunderground v.1.15,2013-03-17 19:10:00,
2013-03-17 15:15:00,25.4,-0.4,30.20,West,263,9.0,16.0,32,0.00,,,0.00,Wunderground v.1.15,2013-03-17 19:15:00,
2013-03-17 15:20:00,24.8,-1.6,30.20,West,272,10.0,10.0,31,0.00,,,0.00,Wunderground v.1.15,2013-03-17 19:20:00,
2013-03-17 15:25:00,25.3,-1.2,30.20,WSW,257,9.0,10.0,31,0.00,,,0.00,Wunderground v.1.15,2013-03-17 19:25:00,
2013-03-17 15:30:00,25.1,-2.0,30.20,NW,312,9.0,16.0,30,0.00,,,0.00,Wunderground v.1.15,2013-03-17 19:30:00,
2013-03-17 15:35:00,24.6,-1.8,30.21,NNE,32,12.0,16.0,31,0.00,,,0.00,Wunderground v.1.15,2013-03-17 19:35:00,
2013-03-17 15:40:00,25.0,-1.4,30.21,North,5,11.0,11.0,31,0.00,,,0.00,Wunderground v.1.15,2013-03-17 19:40:00,
2013-03-17 15:45:00,24.7,-2.4,30.21,West,271,10.0,21.0,30,0.00,,,0.00,Wunderground v.1.15,2013-03-17 19:45:00,
2013-03-17 15:50:00,24.5,2.5,30.21,NNE,19,13.0,15.0,38,0.00,,,0.00,Wunderground v.1.15,2013-03-17 19:50:00,
2013-03-17 15:55:00,24.3,3.9,30.21,North,11,12.0,15.0,41,0.00,,,0.00,Wunderground v.1.15,2013-03-17 19:55:00,
2013-03-17 16:00:00,24.4,4.0,30.21,NNE,19,8.0,11.0,41,0.00,,,0.00,Wunderground v.1.15,2013-03-17 20:00:00,
2013-03-17 16:05:00,24.0,3.1,30.21,NNE,19,9.0,11.0,40,0.00,,,0.00,Wunderground v.1.15,2013-03-17 20:05:00,
2013-03-17 16:10:00,23.9,3.0,30.22,NNE,17,10.0,12.0,40,0.00,,,0.00,Wunderground v.1.15,2013-03-17 20:10:00,
2013-03-17 16:15:00,24.0,3.1,30.22,North,360,10.0,14.0,40,0.00,,,0.00,Wunderground v.1.15,2013-03-17 20:15:00,
2013-03-17 16:20:00,24.2,2.2,30.22,North,5,10.0,10.0,38,0.00,,,0.00,Wunderground v.1.15,2013-03-17 20:20:00,
2013-03-17 16:25:00,24.0,2.0,30.22,NNE,12,9.0,11.0,38,0.00,,,0.00,Wunderground v.1.15,2013-03-17 20:25:00,
2013-03-17 16:30:00,23.8,1.3,30.22,NNE,32,10.0,10.0,37,0.00,,,0.00,Wunderground v.1.15,2013-03-17 20:30:00,
2013-03-17 16:40:00,24.3,0.5,30.23,NNE,32,8.0,11.0,35,0.00,,,0.00,Wunderground v.1.15,2013-03-17 20:40:00,
2013-03-17 16:45:00,24.1,0.3,30.23,North,5,9.0,11.0,35,0.00,,,0.00,Wunderground v.1.15,2013-03-17 20:45:00,
2013-03-17 16:50:00,23.7,-0.6,30.23,NNE,21,9.0,9.0,34,0.00,,,0.00,Wunderground v.1.15,2013-03-17 20:50:00,
2013-03-17 16:55:00,24.2,-0.8,30.23,North,355,9.0,11.0,33,0.00,,,0.00,Wunderground v.1.15,2013-03-17 20:55:00,
2013-03-17 17:00:00,24.1,-1.6,30.24,North,349,10.0,10.0,32,0.00,,,0.00,Wunderground v.1.15,2013-03-17 21:00:00,
2013-03-17 17:05:00,24.6,0.2,30.24,NNW,335,9.0,11.0,34,0.00,,,0.00,Wunderground v.1.15,2013-03-17 21:05:00,
2013-03-17 17:10:00,23.9,-0.4,30.24,North,11,9.0,17.0,34,0.00,,,0.00,Wunderground v.1.15,2013-03-17 21:10:00,
2013-03-17 17:15:00,23.7,-0.6,30.24,NNW,339,11.0,17.0,34,0.00,,,0.00,Wunderground v.1.15,2013-03-17 21:15:00,
2013-03-17 17:20:00,23.9,0.2,30.24,NNW,332,10.0,10.0,35,0.00,,,0.00,Wunderground v.1.15,2013-03-17 21:20:00,
2013-03-17 17:25:00,23.9,0.2,30.24,North,11,8.0,10.0,35,0.00,,,0.00,Wunderground v.1.15,2013-03-17 21:25:00,
2013-03-17 17:30:00,23.8,0.7,30.25,NE,44,7.0,7.0,36,0.00,,,0.00,Wunderground v.1.15,2013-03-17 21:30:00,
2013-03-17 17:35:00,23.5,0.4,30.25,NNW,329,9.0,9.0,36,0.00,,,0.00,Wunderground v.1.15,2013-03-17 21:35:00,
2013-03-17 17:40:00,23.5,0.4,30.25,West,272,9.0,10.0,36,0.00,,,0.00,Wunderground v.1.15,2013-03-17 21:40:00,
2013-03-17 17:50:00,23.8,0.7,30.26,West,275,7.0,7.0,36,0.00,,,0.00,Wunderground v.1.15,2013-03-17 21:50:00,
2013-03-17 17:55:00,23.9,-0.4,30.26,NW,312,6.0,7.0,34,0.00,,,0.00,Wunderground v.1.15,2013-03-17 21:55:00,
2013-03-17 18:00:00,23.5,0.4,30.26,North,349,6.0,10.0,36,0.00,,,0.00,Wunderground v.1.15,2013-03-17 22:00:00,
2013-03-17 18:05:00,23.2,0.1,30.27,North,5,7.0,10.0,36,0.00,,,0.00,Wunderground v.1.15,2013-03-17 22:05:00,
2013-03-17 18:10:00,23.1,0.1,30.27,NE,35,6.0,7.0,36,0.00,,,0.00,Wunderground v.1.15,2013-03-17 22:10:00,
2013-03-17 18:15:00,22.7,0.3,30.27,North,5,6.0,7.0,37,0.00,,,0.00,Wunderground v.1.15,2013-03-17 22:15:00,
2013-03-17 18:20:00,22.7,-0.3,30.27,NNE,21,5.0,6.0,36,0.00,,,0.00,Wunderground v.1.15,2013-03-17 22:20:00,
2013-03-17 18:25:00,22.1,0.3,30.28,North,350,5.0,6.0,38,0.00,,,0.00,Wunderground v.1.15,2013-03-17 22:25:00,
2013-03-17 18:30:00,21.9,-0.4,30.28,North,355,6.0,13.0,37,0.00,,,0.00,Wunderground v.1.15,2013-03-17 22:30:00,
2013-03-17 18:35:00,21.9,-0.4,30.28,North,5,6.0,13.0,37,0.00,,,0.00,Wunderground v.1.15,2013-03-17 22:35:00,
2013-03-17 18:40:00,21.7,-1.2,30.29,NNW,335,5.0,5.0,36,0.00,,,0.00,Wunderground v.1.15,2013-03-17 22:40:00,
2013-03-17 18:45:00,21.3,-1.0,30.29,WNW,289,5.0,7.0,37,0.00,,,0.00,Wunderground v.1.15,2013-03-17 22:45:00,
2013-03-17 18:50:00,21.1,-1.2,30.30,NNW,329,4.0,4.0,37,0.00,,,0.00,Wunderground v.1.15,2013-03-17 22:50:00,
2013-03-17 18:55:00,20.9,-1.3,30.30,NNE,26,4.0,4.0,37,0.00,,,0.00,Wunderground v.1.15,2013-03-17 22:55:00,
2013-03-17 19:00:00,20.8,-2.0,30.31,NW,310,5.0,13.0,36,0.00,,,0.00,Wunderground v.1.15,2013-03-17 23:00:00,
2013-03-17 19:05:00,20.6,-1.6,30.31,NNE,17,6.0,13.0,37,0.00,,,0.00,Wunderground v.1.15,2013-03-17 23:05:00,
2013-03-17 19:10:00,20.5,-1.7,30.31,NE,47,8.0,8.0,37,0.00,,,0.00,Wunderground v.1.15,2013-03-17 23:10:00,
2013-03-17 19:15:00,20.4,-1.8,30.32,NNE,24,7.0,8.0,37,0.00,,,0.00,Wunderground v.1.15,2013-03-17 23:15:00,
2013-03-17 19:20:00,20.4,-1.2,30.32,NNE,16,4.0,4.0,38,0.00,,,0.00,Wunderground v.1.15,2013-03-17 23:20:00,
2013-03-17 19:25:00,20.2,-1.4,30.33,NNW,348,3.0,9.0,38,0.00,,,0.00,Wunderground v.1.15,2013-03-17 23:25:00,
2013-03-17 19:30:00,20.1,-1.5,30.33,NNE,31,4.0,4.0,38,0.00,,,0.00,Wunderground v.1.15,2013-03-17 23:30:00,
2013-03-17 19:35:00,20.0,-1.6,30.33,NNE,25,4.0,4.0,38,0.00,,,0.00,Wunderground v.1.15,2013-03-17 23:35:00,
2013-03-17 19:40:00,20.0,-2.1,30.34,North,10,5.0,6.0,37,0.00,,,0.00,Wunderground v.1.15,2013-03-17 23:40:00,
2013-03-17 19:45:00,20.0,-1.6,30.34,NNW,331,6.0,6.0,38,0.00,,,0.00,Wunderground v.1.15,2013-03-17 23:45:00,
2013-03-17 19:50:00,19.8,-1.8,30.34,North,355,5.0,8.0,38,0.00,,,0.00,Wunderground v.1.15,2013-03-17 23:50:00,
2013-03-17 19:55:00,19.7,-1.8,30.35,NNE,18,5.0,8.0,38,0.00,,,0.00,Wunderground v.1.15,2013-03-17 23:55:00,
2013-03-17 20:00:00,19.6,-1.4,30.35,NNE,19,4.0,4.0,39,0.00,,,0.00,Wunderground v.1.15,2013-03-18 00:00:00,
2013-03-17 20:05:00,19.5,-2.0,30.35,North,355,5.0,6.0,38,0.00,,,0.00,Wunderground v.1.15,2013-03-18 00:05:00,
2013-03-17 20:10:00,19.5,-1.5,30.36,NE,34,5.0,8.0,39,0.00,,,0.00,Wunderground v.1.15,2013-03-18 00:10:00,
2013-03-17 20:15:00,19.4,-1.6,30.36,NE,38,5.0,8.0,39,0.00,,,0.00,Wunderground v.1.15,2013-03-18 00:15:00,
2013-03-17 20:20:00,19.3,-1.7,30.36,NE,36,5.0,5.0,39,0.00,,,0.00,Wunderground v.1.15,2013-03-18 00:20:00,
2013-03-17 20:25:00,19.3,-2.2,30.36,NE,48,6.0,6.0,38,0.00,,,0.00,Wunderground v.1.15,2013-03-18 00:25:00,
2013-03-17 20:35:00,19.1,-1.8,30.37,NNE,17,5.0,7.0,39,0.00,,,0.00,Wunderground v.1.15,2013-03-18 00:35:00,
2013-03-17 20:40:00,19.1,-1.3,30.38,WNW,298,5.0,5.0,40,0.00,,,0.00,Wunderground v.1.15,2013-03-18 00:40:00,
2013-03-17 20:45:00,19.0,-1.4,30.38,NNW,337,6.0,6.0,40,0.00,,,0.00,Wunderground v.1.15,2013-03-18 00:45:00,
2013-03-17 20:50:00,18.8,-1.6,30.38,WNW,303,6.0,6.0,40,0.00,,,0.00,Wunderground v.1.15,2013-03-18 00:50:00,
2013-03-17 20:55:00,18.6,-1.2,30.38,North,355,6.0,6.0,41,0.00,,,0.00,Wunderground v.1.15,2013-03-18 00:55:00,
2013-03-17 21:00:00,18.5,-1.3,30.38,NNW,343,6.0,6.0,41,0.00,,,0.00,Wunderground v.1.15,2013-03-18 01:00:00,
2013-03-17 21:05:00,18.4,-1.9,30.38,West,271,7.0,7.0,40,0.00,,,0.00,Wunderground v.1.15,2013-03-18 01:05:00,
2013-03-17 21:10:00,18.4,-0.9,30.38,WNW,291,7.0,7.0,42,0.00,,,0.00,Wunderground v.1.15,2013-03-18 01:10:00,
2013-03-17 21:15:00,18.3,-1.5,30.38,WNW,296,6.0,7.0,41,0.00,,,0.00,Wunderground v.1.15,2013-03-18 01:15:00,
2013-03-17 21:20:00,18.4,-1.4,30.39,NW,317,6.0,6.0,41,0.00,,,0.00,Wunderground v.1.15,2013-03-18 01:20:00,
2013-03-17 21:25:00,18.3,-2.0,30.40,North,355,7.0,7.0,40,0.00,,,0.00,Wunderground v.1.15,2013-03-18 01:25:00,
2013-03-17 21:30:00,18.2,-1.6,30.40,NW,321,5.0,5.0,41,0.00,,,0.00,Wunderground v.1.15,2013-03-18 01:30:00,
2013-03-17 21:35:00,18.1,-1.7,30.40,NW,320,5.0,16.0,41,0.00,,,0.00,Wunderground v.1.15,2013-03-18 01:35:00,
2013-03-17 21:40:00,18.1,-1.7,30.40,North,5,7.0,9.0,41,0.00,,,0.00,Wunderground v.1.15,2013-03-18 01:40:00,
2013-03-17 21:45:00,18.0,-1.8,30.41,NW,315,8.0,9.0,41,0.00,,,0.00,Wunderground v.1.15,2013-03-18 01:45:00,
2013-03-17 21:50:00,18.0,-1.8,30.41,NNW,327,8.0,14.0,41,0.00,,,0.00,Wunderground v.1.15,2013-03-18 01:50:00,
2013-03-17 21:55:00,17.8,-2.0,30.41,NW,310,8.0,14.0,41,0.00,,,0.00,Wunderground v.1.15,2013-03-18 01:55:00,
2013-03-17 22:00:00,17.7,-2.1,30.41,NW,317,6.0,6.0,41,0.00,,,0.00,Wunderground v.1.15,2013-03-18 02:00:00,
2013-03-17 22:05:00,17.6,-2.1,30.41,NW,309,7.0,15.0,41,0.00,,,0.00,Wunderground v.1.15,2013-03-18 02:05:00,
2013-03-17 22:10:00,17.5,-1.7,30.41,WNW,283,6.0,15.0,42,0.00,,,0.00,Wunderground v.1.15,2013-03-18 02:10:00,
2013-03-17 22:15:00,17.4,-1.8,30.41,WNW,299,7.0,19.0,42,0.00,,,0.00,Wunderground v.1.15,2013-03-18 02:15:00,
2013-03-17 22:20:00,17.3,-2.4,30.41,WSW,256,8.0,8.0,41,0.00,,,0.00,Wunderground v.1.15,2013-03-18 02:20:00,
2013-03-17 22:25:00,17.3,-2.4,30.41,WNW,286,9.0,9.0,41,0.00,,,0.00,Wunderground v.1.15,2013-03-18 02:25:00,
2013-03-17 22:30:00,17.2,-2.5,30.41,WNW,287,8.0,8.0,41,0.00,,,0.00,Wunderground v.1.15,2013-03-18 02:30:00,
2013-03-17 22:35:00,17.2,-3.0,30.41,WSW,256,8.0,8.0,40,0.00,,,0.00,Wunderground v.1.15,2013-03-18 02:35:00,
2013-03-17 22:45:00,17.1,-2.6,30.42,West,266,5.0,9.0,41,0.00,,,0.00,Wunderground v.1.15,2013-03-18 02:45:00,
2013-03-17 22:50:00,17.1,-3.1,30.42,West,278,5.0,5.0,40,0.00,,,0.00,Wunderground v.1.15,2013-03-18 02:50:00,
2013-03-17 22:55:00,17.1,-3.1,30.42,WNW,300,6.0,7.0,40,0.00,,,0.00,Wunderground v.1.15,2013-03-18 02:55:00,
2013-03-17 23:00:00,17.0,-3.2,30.43,West,271,6.0,6.0,40,0.00,,,0.00,Wunderground v.1.15,2013-03-18 03:00:00,
2013-03-17 23:05:00,16.9,-2.8,30.43,WNW,288,3.0,6.0,41,0.00,,,0.00,Wunderground v.1.15,2013-03-18 03:05:00,
2013-03-17 23:10:00,16.7,-3.5,30.43,West,277,2.0,4.0,40,0.00,,,0.00,Wunderground v.1.15,2013-03-18 03:10:00,
2013-03-17 23:15:00,16.6,-3.1,30.43,SW,225,2.0,4.0,41,0.00,,,0.00,Wunderground v.1.15,2013-03-18 03:15:00,
2013-03-17 23:20:00,16.5,-3.1,30.43,SW,218,2.0,4.0,41,0.00,,,0.00,Wunderground v.1.15,2013-03-18 03:20:00,
2013-03-17 23:25:00,16.4,-3.2,30.44,SW,218,3.0,4.0,41,0.00,,,0.00,Wunderground v.1.15,2013-03-18 03:25:00,
2013-03-17 23:30:00,16.2,-2.9,30.44,WSW,253,3.0,7.0,42,0.00,,,0.00,Wunderground v.1.15,2013-03-18 03:30:00,
2013-03-17 23:35:00,16.3,-3.3,30.44,WNW,287,3.0,7.0,41,0.00,,,0.00,Wunderground v.1.15,2013-03-18 03:35:00,
2013-03-17 23:45:00,16.3,-3.3,30.45,NW,305,3.0,4.0,41,0.00,,,0.00,Wunderground v.1.15,2013-03-18 03:45:00,
2013-03-17 23:50:00,16.3,-3.3,30.44,WSW,255,3.0,3.0,41,0.00,,,0.00,Wunderground v.1.15,2013-03-18 03:50:00,
2013-03-17 23:55:00,16.2,-3.4,30.44,West,269,3.0,3.0,41,0.00,,,0.00,Wunderground v.1.15,2013-03-18 03:55:00,